Location: Fontevrault
(47.1823°N, 0.0493°E)
Time: 14:45:44
(UTC+00:00)

BREEZE-M DEB (TANK) - Pass Details

Date: 16 June 2021
Orbit: 333 x 16574 km, 49.3° (Epoch: 29 July)

Event Time Altitude Azimuth Distance (km) Brightness Sun altitude
Rises 22:45:23 0° 232° (SW) 8,077 8.0 -17.4°
Reaches altitude 10° 22:53:01 10° 229° (SW) 5,009 6.9 -17.8°
Maximum altitude 23:02:42 51° 157° (SSE) 1,023 3.2 -18.2°
Drops below altitude 10° 23:05:56 10° 80° (E) 1,708 4.8 -18.4°
Sets 23:07:19 0° 73° (ENE) 2,350 5.6 -18.4°
